Location: La Pernelle
(49.6188°N, 1.2999°W)
Time: 08:39:10
(UTC+00:00)

H-2A R/B - Pass Details

Date: 12 June 2021
Orbit: 574 x 597 km, 98.2° (Epoch: 26 July)

Event Time Altitude Azimuth Distance (km) Brightness Sun altitude
Rises 21:32:47 0° 21° (NNE) 2,803 7.4 -9.7°
Reaches altitude 10° 21:35:07 10° 31° (NNE) 1,896 6.4 -9.9°
Maximum altitude 21:38:52 34° 97° (E) 964 4.2 -10.2°
Enters shadow 21:41:50 14° 158° (SSE) 1,611 5.1 -10.5°
